Regional Weather Roundup
Issued by NWS Jackson, KY

Home | Current Version | Previous Version | Graphics & Text | Print | Product List | Glossary On
Versions: 1 2 3 4 5 6 7 8 9 10 11 12 13 14 15 16 17 18 19 20 21 22 23 24 25 26 27
000
ASUS43 KJKL 160310
RWRJKL

EAST KENTUCKY HOURLY WEATHER ROUNDUP
NATIONAL WEATHER SERVICE JACKSON KY
1000 PM EST FRI DEC 15 2017

NOTE: "FAIR" INDICATES FEW OR NO CLOUDS BELOW 12,000 FEET WITH
NO SIGNIFICANT WEATHER AND/OR OBSTRUCTIONS TO VISIBILITY.

* THESE REPORTS ARE NOT UNDER NWS QUALITY CONTROL AND MAY NOT
  REPORT WEATHER SUCH AS PRECIPITATION AND FOG.

KYZ079-080-083-085-087-088-110-112-115-119-120-160400
...EASTERN KENTUCKY...

CITY           SKY/WX    TMP DP  RH WIND       PRES   REMARKS
JACKSON        CLOUDY    31  21  66 SW5       30.12S WCI  26
LONDON         CLOUDY    32  21  64 S6        30.16R WCI  26
SOMERSET*      CLOUDY    32  21  64 SW7       30.18S WCI  26
MONTICELLO*    CLOUDY    33  24  69 NE6       30.20R WCI  28
WILLIAMSBURG*  CLOUDY    32  21  64 SW5       30.17S WCI  27
MIDDLESBORO*   CLOUDY    30  24  78 CALM      30.19R
HARLAN APT*    CLOUDY    30  21  69 CALM      30.16R
PIKE CO APT*   CLOUDY    31  20  64 SW3       30.12S
BIG SANDY APT* CLOUDY    32  21  63 SW7       30.12S WCI  26
MOREHEAD APT*  CLOUDY    32  19  59 SW9       30.13S WCI  24
$$

KYZ035-036-041-042-044-050-067-078-099-160400
...CENTRAL KENTUCKY...

CITY           SKY/WX    TMP DP  RH WIND       PRES   REMARKS
MT STERLING*   CLOUDY    32  23  69 W7        30.14R WCI  26
FLEMING/MASON* CLOUDY    30  22  70 SW8       30.12S WCI  23
DANVILLE*      CLOUDY    32  23  69 SW6       30.15R WCI  26
LEXINGTON      CLOUDY    33  22  63 SW7       30.12S WCI  27
FRANKFORT      PTCLDY    30  20  66 SW6       30.12R WCI  24
LOUISVILLE     PTCLDY    34  23  64 SW5       30.13S WCI  30
LEBANON*         N/A     32  23  69 SW6       30.14R WCI  26
GLASGOW*       CLOUDY    35  23  62 S3        30.16S
BOWLING GREEN  CLOUDY    37  23  56 SW8       30.17R WCI  31
$$

KYZ091>093-OHZ055-061-077-WVZ005-015-034-035-042-160400
...SOUTHERN OHIO/WEST VIRGINIA...

CITY           SKY/WX    TMP DP  RH WIND       PRES   REMARKS
COVINGTON      CLOUDY    32  23  69 SW8       30.08S WCI  25
COLUMBUS       CLOUDY    31  20  63 SW14      30.05R WCI  21
DAYTON         CLOUDY    29  22  75 SW15      30.05R WCI  18
WILMINGTON     CLOUDY    27  22  81 SW7       30.06S WCI  19
HUNTINGTON     CLOUDY    33  19  56 SW6       30.11R WCI  28
CHARLESTON     CLOUDY    32  18  56 SW8       30.11R WCI  25
PINEVILLE*       N/A     30  20  64 MISG      30.14R
BECKLEY        CLOUDY    25  17  72 W13       30.03R WCI  14
BLUEFIELD      CLOUDY    24  15  68 W17G28    30.03R WCI  11
LOGAN CO APT*  CLOUDY    30  19  64 SW7       30.09S WCI  23
$$

VAZ002-007-008-TNZ017-027-036-066-071-160400
...SOUTHWEST VIRGINIA/EAST TENNESSEE...

CITY           SKY/WX    TMP DP  RH WIND       PRES   REMARKS
WISE*          CLOUDY    30  21  69 W8        30.09S WCI  23
JONESVILLE*    CLOUDY    30  21  69 CALM      30.19S
ABINGDON*      CLOUDY    31  21  67 W8        30.12R WCI  23
BRISTOL        CLOUDY    30  23  75 SW5       30.17R WCI  25
MORRISTOWN*    CLOUDY    30  23  74 SW8       30.19R WCI  23
SEVIERVILLE*   MOCLDY    27  23  86 CALM      30.22R
KNOXVILLE      PTCLDY    28  24  85 SW5       30.22R WCI  23
LAFOLLETTE*    CLOUDY    28  23  80 CALM      30.23R
OAK RIDGE      CLOUDY    30  23  75 S3        30.23R
CROSSVILLE     CLOUDY    25  19  78 SW3       30.18R
NASHVILLE      CLEAR     31  23  72 S8        30.21S WCI  23
$$

...KEY TO REMARKS...
VSB - VISIBILITY IN MILES
WCI - WIND CHILL INDEX
HX  - HEAT INDEX

$$




USA.gov is the U.S. government's official web portal to all federal, state and local government web resources and services.